Terminal Aerodrome Forecast
Issued by NWS Omaha/Valley, NE

Home | Current Version | Previous Version | Text Only | Print | Product List | Glossary On
Versions: 1 2 3 4 5 6 7 8 9 10 11 12 13 14 15 16 17 18 19 20 21 22 23 24 25 26 27 28 29 30 31 32
837
FTUS43 KOAX 121725
TAFLNK
TAF
KLNK 121725Z 1218/1318 21005KT P6SM OVC040
     FM131000 26009KT P6SM FEW250 WS020/32045KT
     FM131400 31017G26KT P6SM FEW250
     FM131700 32024G36KT P6SM FEW250=

USA.gov is the U.S. government's official web portal to all federal, state and local government web resources and services.